Weather in Upsha

Russia / Mari El Republic     56°52′00″N   47°43′55″E
temp.,
°C
wind,
m/s
gust,
m/s
humid.,
%
clouds,
%
prec.,
mm/h
press.,
hPa
HPBL,
m
25 february, thu
thu2500:00−23ssw229691 0.0 103420
03:00−23s249894 0.0 103285
06:00−22s3794100 0.0 1029238
09:00−20sse5991100 0.0 1026318
12:00−16sse61294100 0.4 1023470
15:00−15sse61194100 1.2 1020603
18:00−15sse51194100 1.0 1018661
21:00−15sse5994100 1.8 1017521
26 february, fri
fri2600:00−15se4995100 0.4 1015410
03:00−16se4995100 0.8 1016343
06:00−16se389695 0.1 1013271
09:00−14sse489497 0.2 1013335
12:00−11se4792100 0.1 1011402
15:00−9se51092100 0.3 1008452
18:00−9se61494100 1.1 1002448
21:00−7se61395100 5.4 997497
27 february, sat
sat2700:00−6se4896100 3.9 994302
03:00−5ene1298100 7.1 99354
06:00−6nne2397100 1.6 992120
09:00−8ne3695100 2.2 993244
12:00−8nne4793100 0.4 995413
15:00−10nne5994100 1.1 997538
18:00−11n51093100 0.8 999640
21:00−13n41092100 0.9 1002488
28 february, sun
sun2800:00−16n4109599 0.0 1003306
03:00−18nnw499595 0.0 1006263
06:00−20n4109564 0.0 1008276
09:00−18n499263 0.0 1009366
12:00−14n478977 0.0 1011498
15:00−13n488987 0.0 1012628
18:00−16n3994100 0.0 1014282
21:00−18n399592 0.1 1017210
1 march, mon
mon100:00−20n36980 0.0 1018112
03:00−21nnw36970 0.0 1020115
06:00−23nnw23980 0.0 102265
09:00−19nnw25950 0.0 1023200
12:00−13nw238632 0.0 1023359
15:00−12wnw249047 0.0 1022325
18:00−13sw349736 0.0 102191
21:00−12sw499668 0.0 1019268